Simultaneous Nadir Overpasses (SNOs) Predictions

Prediction of SNOs between GOES-16 and NOAA-19 Satellite Orbit:

Table of predicted SNOs for the next 14.0 days since TLE Epoch: 7/15/2024
Index Date Time (GOES-16) GOES-16 Lat,Lon NOAA-19 Lat,Lon Distance(km) Time Diff (sec)
1 07/15/2024 14:09:54 0.02, -75.20 -0.60, -72.47 311.47 80
2 07/18/2024 02:26:41 -0.02, -75.20 -0.44, -77.11 217.59 80
3 07/19/2024 02:17:02 -0.02, -75.20 0.25, -74.12 124.02 80
4 07/20/2024 02:04:43 -0.02, -75.20 0.89, -71.11 465.62 80
5 07/21/2024 14:33:44 0.01, -75.20 0.81, -78.73 401.78 80
6 07/22/2024 14:21:25 0.01, -75.21 0.14, -75.73 59.72 80
7 07/23/2024 14:11:46 0.01, -75.21 -0.58, -72.74 282.52 80
8 07/26/2024 02:28:34 0.01, -75.23 -0.47, -77.38 244.78 80
9 07/27/2024 02:18:55 0.00, -75.24 0.19, -74.38 98.11 80
10 07/28/2024 02:06:36 0.00, -75.25 0.90, -71.39 441.09 80
